Location: �quirre
(50.4736°N, 2.2351°E)
Time: 17:50:13
(UTC+00:00)

Cosmos 2219 Rocket - Pass Details

Date: 07 August 2020
Orbit: 826 x 848 km, 71.0° (Epoch: 24 September)

Event Time Altitude Azimuth Distance (km) Brightness Sun altitude
Rises 01:46:23 0° 319° (NW) 3,416 5.6 -19.0°
Reaches altitude 10° 01:49:40 10° 300° (WNW) 2,478 4.6 -18.8°
Maximum altitude 01:53:10 17° 262° (W) 2,023 3.8 -18.5°
Enters shadow 01:53:17 17° 260° (W) 2,023 3.8 -18.5°
